Theta_e
340 341 341 340 338 337 335 335 336 336 335 335 334 333 333 333 333 333 333 332 333 330 326 326 326 326 326 326 327 326 327 327 327 327 327 327 328 332 330 330 330 329 328 329 327 326 327 328 328 326 326 326 325 325 325 323 323 322 322 322 322 322 320 321 321 322 320 320 320 320 320 320 320 320 320 319 318 318 318 318 317 318 318 318 318
339 340 340 340 340 339 337 335 336 336 336 335 335 334 333 333 333 333 333 333 334 335 328 326 326 326 326 326 326 327 327 327 327 327 327 327 329 336 330 330 330 329 329 330 331 330 328 327 327 327 326 326 325 325 324 323 323 323 322 321 321 321 321 321 321 321 321 320 320 320 320 319 320 319 319 319 319 318 318 318 317 316 317 317 317
339 339 340 340 340 339 338 337 336 337 337 336 336 335 334 334 333 333 333 333 334 336 327 327 326 326 328 326 326 327 327 327 327 327 327 327 327 331 335 331 330 331 331 331 330 330 330 329 330 327 326 325 325 325 324 324 323 323 322 322 321 321 320 321 321 321 320 319 320 320 320 319 319 319 318 318 319 318 317 318 318 316 315 317 317
339 338 339 339 339 339 338 337 338 337 338 337 337 338 336 335 335 335 334 335 335 333 329 327 326 326 327 326 326 326 326 327 327 326 327 327 326 328 329 332 332 331 331 331 330 330 330 330 328 327 327 326 325 325 325 325 324 324 323 322 322 322 321 320 320 320 320 319 319 319 319 319 319 319 319 318 318 319 317 317 317 317 316 315 316
339 339 339 338 338 338 337 337 337 337 338 338 338 337 338 337 336 337 335 335 334 331 329 328 327 327 327 326 326 326 326 326 327 327 327 327 327 328 328 331 332 332 331 331 331 331 330 330 328 327 327 327 326 326 326 325 325 325 324 323 322 322 321 321 320 320 320 320 319 319 319 319 319 319 318 319 318 318 318 316 316 317 317 316 315
339 338 338 336 336 337 336 336 336 337 337 337 337 337 337 336 336 336 338 336 332 331 330 328 327 328 327 327 326 326 327 326 327 327 327 327 328 327 327 327 329 330 332 333 332 332 331 331 330 329 329 328 329 327 327 326 326 326 325 324 324 322 322 321 321 320 320 320 320 319 319 319 319 319 319 319 318 318 318 318 316 315 316 317 315
340 339 337 336 335 335 335 336 336 336 336 337 337 337 336 335 335 335 333 334 332 332 329 329 328 327 327 328 326 326 327 326 326 327 326 327 327 328 327 328 328 329 330 330 333 334 334 331 332 331 330 330 330 329 328 328 328 328 326 326 325 324 323 322 321 321 320 320 320 320 320 320 319 319 319 319 319 318 318 318 318 316 315 316 316
340 339 337 336 335 335 335 336 336 337 336 336 337 336 335 334 335 335 332 330 331 331 331 329 329 329 329 328 327 328 326 326 326 326 327 327 327 328 328 327 328 328 332 330 330 330 332 333 334 333 331 331 331 331 329 329 329 329 327 327 328 325 324 324 323 322 322 321 321 321 320 320 319 320 319 320 319 319 318 318 318 318 317 316 316
340 340 339 337 336 336 336 336 337 336 336 336 337 337 335 336 333 336 332 330 330 330 331 330 329 330 330 328 328 329 327 327 327 326 327 326 326 326 327 327 328 332 332 331 330 329 330 333 333 334 332 331 331 331 331 331 330 330 329 328 327 327 326 325 324 324 323 322 322 321 321 320 320 320 320 320 320 319 319 318 318 318 317 317 316
339 340 339 339 338 337 337 337 337 336 336 335 336 336 335 335 333 333 333 331 330 330 331 330 330 330 330 329 329 328 328 327 327 330 327 325 326 326 327 327 328 328 330 330 329 329 328 329 332 333 334 332 332 331 331 331 332 332 331 330 329 329 328 327 326 325 325 324 322 321 321 321 321 320 320 320 321 320 320 319 318 318 317 317 317
339 340 338 339 339 338 337 337 337 336 335 335 334 335 335 334 333 332 335 333 332 331 332 331 331 331 330 330 329 329 329 328 329 329 328 327 326 326 326 327 327 327 328 329 329 329 328 328 327 327 328 333 335 332 332 332 332 332 333 332 331 331 330 330 328 327 326 325 324 323 322 321 321 321 320 320 320 320 320 320 320 319 318 318 318
339 339 339 339 338 337 337 337 337 336 334 333 333 333 334 333 332 332 332 333 336 332 332 332 331 330 333 330 330 329 329 330 329 328 328 327 327 328 327 327 326 327 327 327 328 329 328 328 328 326 327 328 332 335 334 333 332 332 333 333 333 332 331 331 330 329 328 326 326 325 324 323 322 322 321 321 321 320 320 320 320 320 319 319 318
339 339 338 340 339 337 337 336 336 336 335 334 334 334 334 333 333 334 332 330 330 330 331 332 329 328 328 327 328 329 332 332 330 329 328 328 328 327 328 328 327 326 327 328 327 328 328 327 327 327 327 328 329 332 335 334 334 333 333 334 334 334 333 332 332 331 329 328 327 326 325 324 324 323 322 322 322 321 321 320 320 320 320 320 319
339 338 339 338 337 336 335 335 334 335 335 336 334 337 334 332 331 329 330 331 329 328 330 331 326 325 325 322 322 325 329 332 330 330 330 329 329 328 328 327 327 327 328 327 327 327 327 328 327 326 326 327 327 328 330 332 334 335 334 334 334 334 334 333 333 333 331 329 328 327 327 326 325 324 323 322 322 321 321 321 321 321 320 320 320
338 339 338 337 337 336 334 334 334 336 335 333 334 333 331 331 329 329 326 326 329 329 330 330 324 323 325 325 318 322 324 324 328 330 331 330 329 328 328 327 327 329 328 328 327 327 327 328 327 327 326 326 327 327 328 329 330 333 334 334 334 334 334 334 334 333 333 331 330 329 328 327 326 326 325 324 323 322 322 321 321 321 321 320 320
337 338 338 337 336 335 334 333 333 335 335 333 331 331 330 329 329 330 328 326 324 325 331 328 325 327 324 323 320 320 319 320 321 326 329 331 330 329 329 328 329 329 329 328 328 328 328 328 327 327 327 326 327 327 327 328 329 331 333 334 334 334 334 334 334 334 334 334 333 331 330 329 328 328 327 326 325 323 323 323 322 322 321 321 320
336 337 338 336 335 335 333 332 332 333 334 333 331 331 331 330 330 329 328 327 324 323 326 329 327 329 326 320 318 317 319 321 319 323 325 330 330 330 330 330 329 329 329 329 329 329 329 329 328 328 328 327 327 327 327 327 328 330 331 333 334 335 335 335 335 335 335 335 334 333 331 330 330 329 329 328 327 326 325 324 324 323 323 322 321
334 335 336 336 334 334 332 332 331 332 333 333 332 330 329 328 328 329 327 326 327 324 324 327 328 329 327 326 327 322 321 320 321 318 323 327 330 330 331 332 332 331 330 329 329 329 330 329 330 329 328 328 327 327 327 327 328 328 329 330 333 335 335 335 335 335 335 335 335 335 333 332 331 331 330 329 328 327 327 326 325 324 324 323 322
334 333 333 335 334 333 332 331 331 331 334 331 329 329 328 328 328 328 328 327 327 325 324 325 326 327 328 328 329 327 326 324 320 317 318 321 324 329 332 332 332 331 331 331 331 330 331 330 330 330 329 329 328 328 328 327 327 328 329 330 331 333 335 336 336 336 336 335 336 336 335 334 333 332 332 331 330 329 328 327 327 327 326 325 323
334 334 333 333 334 332 331 330 330 329 333 330 329 328 328 328 330 328 328 329 327 326 324 324 326 325 329 327 329 329 325 326 324 323 321 318 321 325 325 328 332 333 333 333 333 332 332 332 330 330 330 329 329 328 328 328 328 328 329 331 332 333 334 336 337 337 337 336 336 336 336 336 335 334 333 333 332 331 330 329 328 328 326 325 324
332 333 333 333 335 332 332 331 329 329 334 330 329 327 327 327 329 328 329 329 328 327 326 325 325 326 327 326 326 327 327 327 326 324 323 319 321 321 323 325 326 330 332 333 334 335 335 334 333 332 332 332 331 330 329 329 329 328 328 329 332 333 334 335 336 337 337 337 337 337 337 337 336 335 335 334 334 334 332 331 329 328 327 326 325
330 331 332 333 335 333 332 332 331 330 334 330 329 328 327 327 328 328 328 329 329 331 328 328 327 328 329 327 326 325 326 326 326 325 324 324 322 322 324 323 323 327 328 331 333 334 335 335 335 334 333 333 333 331 330 330 330 328 328 328 331 333 335 336 336 337 337 338 338 338 338 337 337 337 336 336 335 335 334 332 331 330 329 328 327
330 330 331 332 334 335 331 331 332 336 335 330 330 330 329 329 329 329 329 329 330 331 330 329 329 328 328 329 329 328 328 326 325 325 326 324 322 323 324 324 324 325 329 328 330 332 333 335 335 335 335 335 334 333 332 332 329 328 327 327 329 331 333 336 337 337 338 338 338 339 339 338 338 338 338 337 337 335 336 334 333 331 330 329 328
329 329 329 330 332 334 334 331 332 332 333 333 332 331 331 331 331 331 331 330 331 332 331 330 329 329 328 328 329 329 328 328 328 327 326 325 324 324 324 324 325 325 327 330 332 332 334 333 334 334 336 336 335 335 334 333 332 329 329 327 327 330 332 334 336 337 339 339 339 339 339 339 339 339 339 339 338 337 336 335 333 332 331 330 329
327 328 329 329 331 330 332 331 331 331 332 332 333 333 332 331 331 331 332 331 331 332 331 331 331 330 330 330 330 329 329 330 329 328 327 327 325 324 326 325 324 326 327 326 330 330 333 333 334 334 334 335 336 336 335 335 334 331 328 328 326 328 330 333 335 336 337 339 340 340 341 341 340 340 339 339 338 336 335 335 334 334 333 332 331
328 328 330 329 330 331 331 332 333 332 332 332 332 333 333 332 332 331 331 332 332 332 332 332 332 332 332 331 329 329 330 330 330 329 329 327 325 325 325 324 323 326 328 326 324 328 330 331 334 335 335 335 335 336 337 336 336 330 328 331 331 326 326 329 333 335 337 338 340 340 341 341 341 341 340 338 337 336 335 335 335 335 335 335 334
328 330 330 330 330 330 329 330 332 333 333 332 333 332 333 333 333 332 333 332 332 332 332 332 331 331 331 331 331 330 330 330 330 330 331 330 329 328 326 324 326 325 326 326 326 327 328 331 332 334 335 336 336 336 336 336 333 329 328 335 334 326 324 324 327 331 334 337 338 339 340 340 340 340 338 337 336 336 336 336 335 336 336 337 336
329 330 330 330 330 330 331 330 330 333 333 333 333 332 332 332 332 333 332 333 333 332 333 332 332 332 332 332 331 331 331 330 330 331 331 331 331 331 330 328 324 322 326 325 326 326 327 327 330 332 334 335 335 335 333 333 336 330 329 336 335 332 325 321 321 325 329 333 336 339 340 340 339 338 338 338 337 337 338 338 337 337 337 337 337
328 330 330 330 330 330 331 331 331 332 333 333 333 333 332 333 332 332 332 332 333 333 333 332 333 333 332 331 331 333 332 331 331 331 331 331 332 332 332 330 329 324 323 322 325 326 328 327 328 332 331 334 336 336 336 336 333 333 336 336 336 335 327 321 319 322 326 328 330 334 338 340 341 340 339 339 340 339 338 339 339 339 338 338 337
330 331 331 330 329 332 330 331 331 330 331 331 332 332 332 332 332 332 333 332 332 332 332 333 333 332 332 331 331 332 332 331 331 332 330 330 331 332 331 331 331 327 327 324 325 328 330 330 329 330 332 334 334 335 335 335 329 330 334 334 335 335 324 320 318 318 319 319 320 323 328 334 338 340 341 340 341 340 340 340 339 339 339 338 336
330 329 330 330 329 331 329 330 330 330 330 331 331 331 331 331 331 332 331 331 332 331 332 332 332 332 331 331 331 331 331 331 331 331 331 331 331 332 331 331 330 330 329 328 323 328 330 329 330 329 332 333 334 334 334 334 331 330 333 333 333 327 321 326 320 318 316 315 315 317 320 325 330 334 337 339 341 341 341 340 340 340 337 334 330
329 329 328 329 329 329 328 330 330 330 330 331 331 331 330 330 330 330 330 330 331 331 330 330 331 331 330 330 330 331 332 331 331 332 332 332 333 332 331 331 331 331 330 327 325 325 331 332 332 332 333 333 333 332 333 332 332 325 333 333 334 325 333 334 324 320 316 314 313 313 314 317 322 327 330 332 334 336 337 338 337 333 330 328 327
328 328 328 327 328 329 329 330 330 330 330 330 330 330 330 329 327 329 329 329 329 329 328 328 330 330 330 330 330 331 331 330 331 331 331 331 331 331 332 332 330 330 329 327 325 325 330 334 333 331 332 332 331 332 332 332 333 334 329 334 335 335 334 335 335 323 319 315 313 311 310 310 312 316 321 326 329 326 327 326 321 322 325 327 327
328 328 328 328 329 330 330 330 330 330 330 330 329 329 329 329 328 329 328 329 329 327 327 328 328 329 330 329 330 330 330 330 331 330 330 330 330 330 331 331 330 330 331 328 326 325 325 330 331 331 331 332 330 333 331 331 332 332 332 333 334 335 334 335 334 335 321 317 315 312 310 309 309 309 310 317 318 313 311 311 312 313 315 319 321
328 328 329 329 329 330 330 330 329 329 329 329 328 329 329 330 330 329 330 329 329 327 327 326 326 327 328 329 329 330 330 330 330 330 331 330 330 329 330 330 330 330 331 330 327 325 325 327 331 330 330 331 330 331 332 331 331 332 331 332 332 333 334 334 334 334 322 317 315 313 311 310 309 308 308 308 309 308 308 309 309 309 309 311 311
328 328 329 329 329 328 329 329 328 328 329 328 328 328 328 328 328 328 328 329 328 327 326 326 325 327 327 327 328 329 330 329 329 329 329 329 329 329 330 330 329 329 329 329 329 327 327 325 329 329 330 330 331 332 332 332 331 330 331 332 333 333 334 333 334 334 327 318 315 314 313 312 310 309 308 307 307 307 307 307 307 307 307 307 308
328 329 329 330 329 327 327 327 328 328 328 327 326 326 327 328 328 328 327 328 327 327 327 326 328 327 328 328 330 331 330 329 329 328 329 328 329 329 329 329 329 329 330 329 329 329 327 325 327 330 331 331 331 331 330 329 329 330 330 330 330 332 331 331 330 331 323 320 319 318 317 315 312 311 309 308 308 307 307 307 307 307 306 306 306
320 322 323 326 328 326 327 328 328 328 328 328 328 328 327 327 327 328 328 328 327 327 327 328 328 327 328 330 330 330 330 329 329 329 329 329 329 328 327 328 328 328 328 329 330 329 328 327 327 327 329 328 328 329 330 329 326 326 326 327 329 330 328 326 327 328 330 332 334 334 325 323 320 317 315 312 310 308 308 307 307 307 307 307 306
318 318 319 318 319 320 320 322 323 323 322 323 326 328 328 327 327 327 327 327 327 328 328 329 329 329 329 329 328 328 327 327 328 328 328 328 329 328 328 328 328 327 327 328 328 328 327 327 327 327 326 328 327 325 328 329 328 325 320 320 321 325 326 324 323 326 330 332 327 321 324 323 318 321 316 311 310 310 309 309 309 309 310 309 308
315 315 315 314 316 316 316 316 317 318 318 318 319 321 323 324 324 323 322 321 320 319 319 319 320 321 322 323 324 324 322 320 320 321 323 326 327 327 328 327 327 327 327 327 326 326 325 325 325 325 326 325 326 327 329 326 321 321 319 318 316 317 319 322 323 322 326 330 326 324 320 321 321 320 316 316 315 313 312 311 312 311 312 311 309
315 314 313 314 313 313 314 314 314 315 315 316 317 317 317 317 318 317 318 318 318 317 317 318 318 318 319 321 321 320 320 316 312 311 312 315 322 324 326 327 326 325 324 323 324 324 324 324 324 325 324 323 323 322 320 318 315 313 314 315 314 315 316 316 318 325 326 320 319 318 317 319 319 321 322 323 325 323 323 316 317 314 313 311 309
313 314 312 313 313 313 312 312 313 311 311 312 314 313 315 316 316 316 316 317 317 316 316 315 315 315 315 315 318 318 315 313 309 305 303 306 312 317 319 320 322 322 322 322 322 323 322 321 322 321 319 318 318 317 316 315 312 311 310 310 309 311 313 312 314 321 320 317 315 313 315 317 318 319 321 321 323 326 326 327 327 322 316 311 309
311 312 312 311 312 312 312 311 310 309 308 307 302 299 302 308 315 314 313 313 313 313 313 313 313 311 308 307 310 314 311 309 308 303 301 300 300 300 303 306 311 319 321 320 321 322 321 320 319 317 315 315 313 313 311 307 307 306 307 307 308 308 307 306 306 311 318 313 312 312 313 317 318 316 318 319 320 322 323 323 313 311 309 309 308
310 310 310 310 311 311 311 310 309 308 305 301 296 297 299 302 309 312 311 310 309 309 310 311 311 307 305 305 304 306 310 309 305 304 306 303 300 300 300 300 299 299 300 310 316 315 314 314 313 312 312 309 306 308 305 305 304 305 307 306 306 306 305 305 305 306 311 314 311 310 311 315 318 317 316 317 318 320 320 314 309 309 308 307 307
308 308 308 309 309 310 309 308 306 305 303 298 294 297 297 298 301 308 308 308 308 307 307 307 306 305 304 304 303 302 303 307 304 302 303 304 304 302 303 305 303 299 294 294 298 309 311 310 309 308 305 304 304 305 305 305 304 304 305 305 305 305 305 305 306 307 309 313 311 310 309 312 314 313 313 316 317 318 318 312 310 308 307 306 306
305 305 306 306 307 308 307 305 303 303 302 298 295 296 297 297 298 302 306 306 306 305 305 304 303 302 302 302 302 301 301 301 301 301 302 303 304 305 306 306 307 306 302 299 299 299 303 305 305 304 304 305 304 304 306 305 304 304 304 304 305 305 305 306 308 308 311 313 311 309 308 311 312 312 311 313 315 315 316 312 307 307 306 305 304
303 303 304 305 306 306 304 303 302 300 300 295 295 295 296 296 296 300 304 304 304 304 304 304 303 302 302 301 301 300 300 300 300 300 301 302 303 304 305 304 305 305 305 305 304 305 304 304 304 304 304 305 305 305 305 305 305 305 305 305 305 305 306 308 309 311 311 314 312 310 305 308 311 309 310 310 312 313 315 310 307 306 305 305 305
302 303 304 304 304 303 302 301 300 299 298 294 294 295 296 296 298 302 302 302 302 303 303 304 303 303 302 301 301 300 299 299 297 293 299 303 303 304 304 304 304 303 304 304 298 299 304 304 304 305 305 304 299 304 304 304 306 307 307 307 307 306 305 305 305 307 306 310 311 308 305 305 309 307 307 310 311 311 313 315 310 308 306 306 305
301 301 302 303 304 303 301 300 298 297 298 295 293 294 295 295 297 300 301 301 301 300 300 302 304 304 304 303 301 300 299 299 295 291 293 302 302 303 303 303 303 303 302 304 300 297 296 296 296 296 296 296 297 297 296 296 301 305 305 304 301 302 302 301 302 303 303 306 308 305 304 303 305 305 306 308 309 309 312 315 316 308 306 305 305
301 301 302 303 303 302 299 298 298 297 297 297 293 294 294 295 299 299 299 299 299 299 299 300 301 301 306 308 305 300 299 298 292 291 292 301 301 302 303 303 303 302 302 302 304 304 298 298 297 297 296 297 297 298 297 297 298 302 302 299 300 301 300 300 298 299 301 305 305 305 302 301 303 305 304 306 308 310 312 313 311 311 307 307 307
301 303 304 303 302 301 301 301 302 297 297 297 294 293 294 295 298 299 299 299 298 298 298 298 299 299 300 303 303 298 298 295 290 291 292 300 300 301 302 303 302 301 300 301 303 303 304 303 303 304 302 302 304 304 303 298 299 302 302 301 301 300 298 298 298 299 299 302 305 304 299 300 302 303 303 300 300 305 310 308 308 309 310 312 312
Wind_Speed
6 5 4 2 1 1 2 2 2 2 3 3 4 4 3 3 3 3 3 4 4 4 5 5 4 4 4 4 4 4 4 3 3 2 1 2 2 1 5 6 5 4 4 5 5 4 3 4 5 3 2 3 4 4 4 3 3 3 4 2 3 4 2 3 3 4 2 2 2 4 3 4 4 5 5 4 4 4 5 5 5 6 7 7 8
6 5 5 4 2 1 1 1 1 1 2 3 3 3 2 3 3 3 3 3 3 3 4 5 5 4 4 3 4 4 4 4 4 3 0 2 1 1 4 4 5 4 4 5 6 5 4 2 4 4 4 3 3 3 2 2 2 3 3 2 2 1 2 4 1 3 3 3 1 2 2 2 3 3 3 4 4 4 4 4 5 5 6 6 6
6 6 5 5 4 3 2 2 2 2 2 2 2 2 1 1 2 2 2 2 2 3 4 5 5 4 4 3 4 4 4 3 3 2 2 2 2 0 1 5 5 5 5 5 4 5 5 4 7 3 2 0 2 2 2 2 2 2 3 2 2 2 1 1 2 3 1 1 1 1 2 2 2 2 2 2 3 3 3 4 3 3 4 5 6
6 6 6 6 5 4 4 3 3 2 2 2 2 2 2 2 2 3 3 1 2 3 4 5 5 4 4 4 3 4 4 3 3 3 2 2 3 2 2 2 7 6 6 6 4 5 5 5 4 3 3 3 3 3 3 3 3 4 3 2 2 2 2 2 1 1 1 2 2 2 1 1 2 1 2 2 2 1 2 2 3 3 3 3 4
5 6 6 5 5 5 5 5 4 3 3 3 3 2 2 3 3 2 2 1 2 2 3 3 5 4 4 3 3 4 3 3 4 3 4 3 3 3 2 2 2 5 7 7 8 5 6 6 3 3 3 2 3 4 4 3 3 4 5 4 3 3 3 2 2 1 2 3 3 3 2 1 2 2 2 0 1 1 1 1 0 2 2 2 3
6 5 5 5 5 5 5 5 4 4 4 4 4 3 3 3 3 2 3 2 3 3 4 4 3 3 3 3 4 4 4 4 4 4 4 4 3 3 3 2 2 3 3 7 8 7 6 6 5 5 5 5 5 5 4 5 5 4 5 4 4 3 3 3 2 1 3 3 4 4 4 4 3 3 2 1 1 1 2 1 1 1 1 1 1
6 6 5 5 5 5 5 5 4 4 4 4 4 3 4 4 3 3 3 3 3 4 4 4 5 5 4 4 4 4 3 4 3 3 4 4 3 3 3 3 3 3 3 3 4 5 5 6 7 6 6 7 9 4 6 6 7 6 3 4 6 5 4 4 3 4 4 4 4 4 5 5 4 3 3 3 3 2 2 3 2 2 2 1 1
6 6 6 5 5 6 6 4 5 4 4 4 3 4 4 4 3 3 3 2 3 4 4 5 4 4 4 4 4 3 3 3 4 3 3 2 3 3 3 3 3 3 4 4 4 4 7 6 7 8 7 8 10 10 5 7 7 11 1 6 6 4 4 5 5 5 5 4 5 5 6 6 6 6 5 5 4 4 3 3 3 3 3 3 2
6 6 6 6 5 5 5 5 4 5 4 4 4 4 4 4 2 2 4 3 3 4 4 4 4 4 4 5 4 4 4 4 4 3 2 4 4 4 4 4 4 5 4 4 4 4 5 8 7 8 9 9 10 10 8 8 9 9 7 7 5 6 5 6 7 6 6 6 6 6 7 7 7 7 7 6 6 6 5 3 4 4 4 4 4
6 6 6 6 6 6 5 5 5 5 4 4 5 4 4 4 1 1 4 3 3 4 4 4 3 4 4 5 4 4 4 3 3 3 4 4 4 5 5 4 4 5 4 4 4 4 3 5 8 8 9 10 10 11 10 10 10 11 10 7 5 8 7 8 7 7 7 8 7 6 6 7 8 8 8 8 8 7 7 6 5 5 5 5 5
7 7 6 5 5 5 5 5 5 5 5 4 4 4 3 3 3 1 1 3 4 4 5 4 4 3 3 4 3 4 3 3 3 3 4 5 5 5 3 5 4 5 5 5 4 4 5 4 4 4 4 9 10 12 12 12 12 12 12 11 10 9 10 10 10 10 9 8 8 8 7 8 8 9 9 9 9 8 8 8 7 6 5 6 6
7 7 7 6 6 5 5 5 5 5 5 5 5 4 5 5 4 4 3 1 2 3 3 3 2 3 2 3 4 4 5 4 5 5 4 5 5 4 5 4 4 5 6 6 5 5 5 5 5 5 4 6 10 11 12 13 13 13 13 13 13 12 11 11 11 12 12 10 10 8 9 9 9 9 9 9 10 9 9 9 9 8 8 7 7
7 7 7 6 6 5 5 5 5 5 5 6 6 7 6 5 3 3 4 2 2 2 2 4 3 0 1 1 3 5 6 6 8 7 7 5 4 5 5 4 5 6 6 5 6 6 6 6 5 5 5 5 6 11 12 13 12 14 15 14 14 14 13 14 10 13 13 13 11 10 10 9 9 9 9 9 9 10 10 10 10 9 9 9 8
7 7 7 7 6 6 6 6 5 5 6 5 5 5 4 4 4 2 0 4 4 4 5 5 1 2 1 1 2 2 4 5 6 6 6 5 6 6 5 6 7 6 5 5 6 6 6 6 6 6 6 6 6 6 6 8 11 15 16 16 16 15 15 14 14 12 14 14 13 11 11 9 9 10 10 10 9 9 10 10 10 10 10 10 10
7 7 7 7 7 7 7 6 6 5 5 5 5 5 5 6 6 5 3 2 1 1 5 2 3 1 2 1 2 2 2 3 4 6 7 6 5 6 6 6 9 6 5 5 6 6 6 6 7 7 7 7 6 6 6 7 8 11 15 17 17 17 16 16 15 14 12 16 14 13 13 11 10 10 10 10 10 10 10 11 10 10 10 11 11
7 7 7 7 8 8 6 6 6 6 6 6 5 6 5 5 5 4 3 1 1 1 0 2 3 5 1 2 1 1 4 2 3 5 3 5 5 6 5 6 6 6 4 7 7 6 6 6 7 7 7 7 6 6 7 7 11 14 15 16 17 18 18 18 17 16 16 13 12 14 14 13 11 10 11 11 11 10 10 10 11 11 11 11 11
7 8 8 8 7 7 7 7 6 6 6 6 6 7 7 7 6 5 4 4 2 0 1 1 4 4 4 2 2 1 4 3 3 6 1 1 6 7 5 6 6 6 5 7 6 6 5 6 7 6 7 7 7 7 7 7 7 8 10 15 18 18 18 18 18 18 17 16 15 13 14 14 13 11 11 11 12 11 11 11 11 12 12 11 11
6 6 7 7 8 8 7 7 6 6 6 6 6 5 6 6 6 6 5 4 3 4 2 1 4 3 2 2 3 2 3 2 2 5 2 4 2 1 5 6 5 5 5 6 7 6 5 7 6 7 7 7 7 7 7 7 7 7 7 9 17 18 18 19 19 19 19 18 17 16 15 16 14 12 13 12 12 12 12 12 12 12 11 11 11
5 5 4 6 7 7 7 7 7 6 6 6 6 7 7 6 4 4 5 5 4 3 5 5 1 1 3 4 2 1 2 1 4 1 6 4 2 2 4 5 5 6 6 7 7 6 6 6 7 7 7 6 6 7 6 7 9 10 13 13 15 17 18 19 19 19 19 19 19 19 18 17 16 15 14 14 14 14 14 13 13 11 10 11 11
6 5 5 3 4 7 7 7 7 6 6 7 7 6 4 3 4 5 5 5 5 5 5 4 4 3 1 1 1 1 0 2 2 3 4 7 6 3 4 3 3 5 6 6 7 7 7 6 7 7 6 7 6 6 7 7 7 8 9 16 17 17 18 19 19 19 20 20 20 20 19 18 18 18 16 15 15 15 13 13 13 12 12 13 12
4 6 6 5 3 4 6 7 6 6 6 6 5 6 6 5 5 5 6 5 5 5 4 5 5 5 3 2 0 1 1 2 3 3 4 3 7 5 4 3 2 4 4 5 5 6 6 7 6 7 6 6 6 7 6 6 6 7 8 14 16 17 18 19 19 19 19 20 20 20 20 20 19 19 18 17 16 14 15 15 15 16 16 15 15
5 3 5 6 5 4 5 7 8 7 6 7 6 6 5 6 6 6 6 6 5 5 6 5 5 5 5 4 3 1 0 1 2 2 2 4 7 6 5 6 8 4 2 5 5 5 6 6 6 6 6 6 6 6 6 7 6 6 9 13 15 16 17 18 19 19 19 19 19 20 20 20 20 20 19 19 18 16 14 16 16 17 17 16 14
5 5 5 6 6 5 6 6 6 6 6 6 6 6 6 6 6 6 6 6 6 6 5 4 4 5 6 6 6 6 6 5 4 4 4 4 3 5 5 3 4 9 4 3 5 5 5 4 5 6 6 6 6 6 6 6 8 9 12 11 13 14 17 18 18 19 19 19 19 19 20 20 20 20 20 20 20 19 15 15 16 16 16 15 15
5 5 6 4 4 5 4 5 6 6 6 6 5 6 6 6 6 6 6 6 6 5 6 5 6 5 6 5 6 6 5 6 5 4 5 5 4 6 6 3 4 5 5 5 6 7 6 5 5 5 5 5 5 5 6 6 7 11 9 11 13 14 16 18 19 19 19 19 19 19 20 20 20 20 20 21 21 20 17 15 15 16 16 16 16
6 7 6 6 5 5 3 5 6 6 6 6 6 6 6 6 6 7 7 7 7 7 6 7 7 7 7 6 5 4 6 5 3 4 3 3 4 5 5 2 5 7 3 1 5 3 6 5 4 4 4 5 5 4 4 5 5 6 9 8 12 14 16 18 19 19 19 19 20 20 20 20 20 21 21 21 20 19 18 15 14 16 16 16 16
6 7 6 7 7 6 4 5 6 7 7 7 7 7 7 7 7 7 7 7 6 7 7 7 6 7 5 5 5 6 6 4 5 4 5 4 3 5 5 2 3 6 4 3 1 4 3 2 3 4 4 4 4 3 4 4 5 7 9 8 8 12 15 16 18 19 19 19 19 20 20 20 20 20 20 19 18 18 18 17 16 15 17 18 18
7 5 7 7 7 7 8 9 8 7 8 7 7 7 7 7 6 7 6 6 7 7 6 7 7 7 6 7 6 5 5 5 5 6 5 6 6 5 4 7 5 3 6 4 4 5 7 6 5 5 4 3 2 2 3 3 5 8 8 6 6 10 12 14 16 17 18 19 19 19 19 19 18 18 18 18 18 18 19 18 18 18 18 18 19
8 5 7 7 7 6 6 7 11 9 8 8 8 7 7 7 6 6 7 5 7 7 7 7 7 8 8 6 4 7 5 5 5 5 5 5 5 4 4 5 7 8 5 8 5 5 3 3 4 4 3 3 2 2 2 3 4 7 8 5 5 6 9 12 13 14 15 18 19 20 20 19 18 18 18 18 19 19 19 19 19 18 19 19 19
8 9 7 7 7 7 7 9 12 9 8 8 8 8 7 7 7 7 7 6 6 8 6 6 7 6 5 7 7 6 5 4 4 4 4 4 4 4 4 6 5 7 6 5 6 6 3 2 3 4 3 4 4 4 5 5 6 7 5 5 5 5 9 11 11 12 13 15 17 19 20 21 20 19 19 19 19 19 19 18 18 19 21 21 20
10 9 8 8 8 11 11 12 9 7 7 7 7 7 7 6 7 7 7 6 6 4 5 6 6 5 5 4 4 5 3 3 4 4 5 5 5 4 3 4 5 7 6 7 7 3 6 2 3 3 4 6 6 6 6 7 10 10 6 5 5 5 10 12 12 12 12 13 14 15 17 19 20 21 21 21 21 20 20 18 19 20 21 20 19
6 7 8 9 9 10 12 9 7 7 6 6 6 6 7 7 6 6 5 6 6 6 5 5 4 4 4 4 3 5 4 4 4 4 5 5 5 3 5 5 5 6 7 7 7 2 1 4 3 1 5 10 7 5 5 5 7 9 6 5 4 6 9 8 11 11 11 12 13 13 14 15 16 18 19 19 19 21 20 20 18 18 19 19 18
7 7 5 6 8 8 6 7 7 7 7 7 6 6 6 6 6 5 5 5 5 6 5 3 2 3 3 4 5 5 4 4 4 4 4 4 4 4 4 5 5 5 5 6 8 9 3 6 7 6 6 6 7 6 6 5 5 7 5 5 6 7 5 4 7 9 10 11 12 12 13 13 13 15 16 17 18 18 17 17 17 17 16 16 17
6 5 5 5 5 6 7 7 7 7 7 6 4 5 5 5 4 5 5 5 5 4 3 3 3 3 4 4 5 5 3 4 5 4 4 4 4 4 4 4 6 5 5 6 7 9 6 2 2 5 4 5 6 4 8 7 7 6 6 5 6 5 5 5 6 8 9 10 10 10 11 11 12 13 13 14 15 15 15 15 15 14 14 15 16
5 6 7 7 7 8 8 7 7 6 6 5 4 4 5 5 5 4 5 5 4 3 3 3 2 2 2 3 5 4 3 4 4 5 5 4 4 4 4 5 5 5 5 5 5 6 10 4 4 1 3 3 9 6 7 9 9 7 7 6 5 5 5 5 5 6 11 10 10 10 9 10 11 11 12 12 13 13 13 13 14 14 14 14 14
5 5 5 6 7 8 7 7 7 6 5 5 5 5 5 6 6 5 5 6 6 6 6 5 5 4 4 4 5 4 3 3 4 5 4 4 4 4 5 4 5 5 5 6 6 6 8 7 4 6 4 5 6 7 7 6 6 5 6 7 6 5 4 5 5 5 10 12 11 9 9 9 9 9 10 10 11 11 12 12 13 14 14 14 14
6 6 7 7 5 5 7 7 7 6 6 5 5 5 5 6 6 7 6 6 6 5 4 2 2 2 2 2 3 4 3 4 4 4 4 4 4 4 4 4 4 5 5 5 6 6 4 7 4 5 5 6 5 5 4 4 6 6 4 5 5 5 5 5 5 6 8 13 13 12 11 9 8 8 8 9 9 9 10 11 12 12 13 14 14
3 5 7 7 5 5 5 8 8 8 6 6 5 5 5 5 6 7 6 6 5 5 5 4 5 4 2 2 2 2 2 4 4 4 3 4 3 3 4 4 4 4 4 4 5 5 6 7 6 3 4 4 2 3 2 7 7 5 6 7 6 5 6 6 6 6 8 11 10 10 10 9 9 8 9 9 9 9 10 11 11 11 12 12 13
4 4 4 4 4 6 7 7 7 6 6 5 5 6 6 6 6 6 6 6 6 5 5 5 5 4 2 2 2 1 2 3 4 3 3 4 3 4 4 4 3 3 3 4 4 4 5 6 7 6 1 5 4 4 4 5 6 7 7 7 5 5 7 8 6 6 6 5 5 5 5 7 8 10 9 9 9 10 11 11 12 12 12 12 12
5 5 5 7 4 4 5 6 6 7 6 6 6 7 7 6 6 7 7 8 7 5 5 5 4 4 3 2 2 2 2 1 1 2 3 3 3 3 2 2 2 2 2 3 4 5 5 5 4 4 5 2 2 6 5 3 4 5 7 8 6 4 5 6 8 5 5 5 3 4 5 6 8 7 10 12 11 10 11 11 12 12 12 13 12
6 7 6 7 6 6 5 7 6 5 6 7 7 8 8 8 9 9 8 8 7 7 8 9 7 5 4 3 2 3 3 3 2 2 2 0 1 2 2 2 1 2 2 3 3 3 3 3 3 4 2 3 4 3 2 4 5 5 7 7 8 8 7 5 4 7 5 4 6 6 5 6 6 7 8 8 9 10 11 10 11 11 12 13 13
6 6 7 8 7 8 7 8 7 6 7 6 6 7 9 8 8 9 8 7 7 8 8 7 5 5 5 5 5 4 5 7 8 7 4 2 1 1 1 2 2 2 2 2 2 2 2 3 4 2 3 4 4 5 6 5 7 7 7 6 6 6 8 7 5 3 4 6 7 7 6 6 8 8 7 7 5 5 7 9 7 10 11 12 13
6 6 7 7 6 6 7 7 7 8 7 5 7 10 8 8 8 6 6 7 7 6 5 4 5 5 5 4 5 8 8 9 9 8 7 8 7 2 2 3 3 2 2 2 2 2 3 3 3 4 4 4 4 6 6 6 6 6 6 6 7 8 7 7 4 2 5 8 8 9 7 5 7 8 7 7 6 7 7 7 7 9 10 12 12
5 4 4 7 6 5 7 7 8 7 5 4 10 12 12 11 8 8 7 6 6 6 5 4 4 5 3 3 3 6 7 7 7 8 8 7 7 9 9 9 7 2 2 1 1 1 2 3 3 3 3 3 5 5 5 6 6 6 6 6 6 6 7 7 7 3 5 9 8 9 7 4 5 8 9 8 8 8 8 9 13 14 13 13 13
1 3 5 5 6 6 6 7 7 5 5 8 11 13 14 14 12 8 7 6 6 5 4 4 4 4 3 3 4 4 5 7 5 5 6 8 8 8 10 12 13 14 12 7 3 3 3 2 3 4 4 4 4 4 5 6 6 6 5 7 6 7 8 7 7 7 4 5 6 9 9 7 4 5 8 8 8 7 9 11 13 14 15 15 14
1 4 4 5 6 5 5 6 6 5 6 9 11 13 14 14 14 10 7 6 6 6 5 5 5 4 3 3 4 5 5 9 7 5 4 4 6 9 9 11 13 13 12 13 12 7 3 4 4 5 5 3 3 4 5 6 4 6 7 5 6 7 7 7 8 9 9 4 6 6 9 7 6 6 6 7 8 9 9 10 13 14 15 16 15
4 4 4 5 5 5 5 6 8 7 7 10 13 14 14 14 14 11 7 7 7 6 6 6 5 5 4 4 4 4 4 5 5 4 4 4 4 5 7 7 7 8 9 10 10 11 8 5 4 4 3 2 3 4 5 4 5 6 6 6 6 7 8 8 9 10 9 6 6 8 8 8 9 8 8 7 8 9 9 10 14 14 15 14 13
3 4 4 5 5 5 6 6 7 7 6 11 13 13 13 13 13 10 7 6 6 6 6 6 5 5 5 4 4 4 4 4 4 5 3 3 4 5 6 7 7 6 7 6 6 5 4 4 4 3 2 2 2 3 4 3 3 3 3 4 5 5 7 8 7 6 8 3 7 7 8 9 9 10 9 10 9 9 8 10 11 13 12 11 14
3 4 4 5 6 7 6 7 8 8 8 12 12 12 12 12 11 7 7 7 7 6 6 5 5 4 4 4 4 4 3 3 6 7 4 3 5 7 7 6 6 6 6 5 5 5 4 3 3 3 3 3 2 3 4 4 4 4 3 1 1 5 5 4 5 7 6 6 8 9 7 9 7 9 10 9 9 9 9 7 7 9 11 15 16
4 5 5 5 5 6 7 7 9 8 8 11 12 11 10 10 8 6 6 6 5 6 5 4 3 3 3 5 4 3 2 3 5 6 5 4 6 6 6 6 5 6 6 4 5 7 6 7 6 6 7 9 9 10 11 12 10 7 3 4 8 7 6 7 6 7 8 6 7 9 6 7 8 10 10 9 10 9 7 6 8 12 14 14 14
5 4 5 6 5 6 7 7 7 9 7 8 10 10 10 9 7 6 5 6 6 5 5 5 4 4 6 10 7 3 3 2 5 5 6 3 6 5 6 6 7 7 6 4 3 4 5 7 9 10 11 10 10 9 11 12 12 10 9 8 7 6 5 6 7 7 9 5 6 9 7 7 9 8 10 9 8 5 5 7 10 11 13 12 12
4 4 5 6 6 5 6 7 11 10 7 6 9 9 9 8 6 5 4 5 6 5 4 5 4 4 4 5 9 7 3 3 5 6 7 5 5 5 5 7 7 7 4 3 5 6 6 7 8 7 9 9 8 8 8 10 12 11 8 7 7 7 7 7 7 7 6 4 6 13 10 9 10 9 10 10 7 5 4 9 9 10 10 10 10
Wind_Direction
130 135 128 131 44 34 45 64 70 81 85 64 80 78 65 58 52 53 84 86 91 127 137 130 131 128 133 138 138 131 131 139 144 112 21 345 351 165 140 141 124 130 148 155 139 134 146 149 130 132 127 155 130 135 135 141 114 129 118 96 72 85 98 96 65 65 59 57 58 64 59 63 58 52 60 73 57 38 47 54 44 37 41 38 33
139 140 143 147 165 161 52 71 95 67 69 78 71 82 63 29 24 26 22 79 94 143 142 144 137 141 145 149 152 147 147 155 162 159 353 338 305 282 160 140 148 163 174 163 163 162 184 140 156 170 163 178 159 153 171 149 154 153 154 141 139 48 53 82 24 80 60 71 54 45 42 58 74 63 58 66 70 47 33 50 45 37 28 43 43
142 148 150 153 161 172 215 235 218 140 93 101 71 95 90 48 336 336 358 69 119 157 153 150 147 148 161 161 168 144 151 161 166 159 182 270 280 318 266 173 175 189 187 201 173 159 170 185 208 163 170 172 131 217 158 188 200 145 122 169 167 165 79 45 35 32 6 354 351 55 65 41 40 52 44 31 68 63 41 28 55 43 30 37 40
148 152 157 163 168 177 193 207 218 165 137 140 139 144 150 196 212 216 220 166 143 168 164 152 159 159 150 168 172 157 161 171 172 178 202 232 237 288 324 244 191 190 200 219 234 175 200 199 201 173 172 205 198 228 215 233 196 148 177 220 192 174 179 201 140 291 298 300 335 314 350 353 16 30 55 21 359 55 49 46 22 42 50 26 35
162 161 162 166 169 177 195 208 211 171 168 176 178 164 196 237 239 235 242 174 153 148 158 159 156 159 155 176 178 173 170 175 179 180 196 213 229 226 291 288 247 211 208 220 242 258 209 221 198 216 193 202 236 237 237 239 245 188 178 226 210 216 214 199 227 198 284 292 281 290 293 301 296 345 319 156 344 326 13 20 18 22 17 55 23
159 165 158 161 174 189 199 206 198 172 179 173 189 183 209 221 246 201 241 201 186 166 153 167 162 140 166 174 192 184 173 184 190 190 191 212 210 230 240 267 252 265 249 232 235 249 241 233 225 211 220 207 246 227 233 254 258 229 204 230 249 222 235 232 280 225 261 274 286 294 297 281 292 281 287 295 277 256 280 278 294 265 353 340 55
166 163 167 167 174 193 208 211 179 175 180 191 182 194 197 215 206 231 233 223 175 177 172 174 167 173 179 180 195 183 184 194 187 201 206 209 212 227 241 251 260 257 252 260 268 272 271 260 265 261 227 227 240 268 183 230 262 274 217 261 215 235 250 257 251 261 267 259 262 273 278 277 270 260 259 278 269 271 251 264 263 251 256 301 272
170 166 169 173 180 196 211 200 183 174 193 183 174 191 196 198 223 194 241 209 164 186 166 168 173 174 173 183 191 192 189 195 199 207 215 209 223 225 229 240 248 249 247 249 255 264 270 272 271 268 240 237 235 267 247 231 228 263 5 223 299 161 228 247 249 251 257 265 276 272 268 275 275 266 263 262 261 261 260 256 269 264 257 260 276
178 175 175 178 184 199 208 198 178 174 183 178 191 190 193 205 195 175 163 175 176 180 184 173 171 182 171 185 192 191 198 203 207 207 189 216 222 224 231 236 236 240 241 241 244 256 264 267 273 275 251 241 241 250 257 244 236 242 251 242 245 270 232 219 238 248 249 258 252 257 264 265 267 265 262 261 259 271 270 264 267 272 271 263 259
185 181 186 185 186 193 201 195 180 167 174 178 207 198 198 201 152 169 151 145 183 190 192 184 171 175 183 190 193 197 204 205 211 210 205 218 218 223 224 228 237 240 242 233 237 241 243 261 263 265 266 248 246 249 250 242 241 236 258 263 236 250 244 224 225 235 234 232 248 248 255 259 262 263 265 264 258 261 264 263 260 261 269 273 263
190 184 186 191 187 189 193 198 181 170 168 190 201 213 223 229 173 198 130 169 182 207 199 177 178 169 189 207 186 210 209 210 208 215 212 223 227 230 218 229 228 239 239 238 237 234 233 234 245 245 257 262 246 243 245 245 241 245 241 249 245 240 236 232 210 218 233 231 245 243 245 251 255 261 265 266 265 263 265 265 266 261 262 264 272
192 187 189 190 191 188 192 186 187 170 174 182 209 203 210 228 203 191 208 228 186 221 191 158 122 139 178 191 204 202 214 207 212 216 216 215 226 223 225 220 221 233 234 235 231 230 233 232 234 232 231 242 249 243 239 242 244 245 243 243 243 250 244 243 213 215 217 213 219 237 239 243 248 257 263 264 264 263 263 266 268 268 267 268 267
193 187 190 193 193 190 187 186 182 182 188 203 203 206 201 202 184 178 196 254 280 178 160 134 123 5 34 232 259 214 215 202 213 214 216 216 210 220 220 219 222 224 230 225 228 227 226 228 227 226 227 223 235 242 240 239 240 241 243 242 244 243 241 249 249 211 215 216 212 218 235 244 250 250 255 265 263 260 261 263 264 266 267 268 271
193 192 191 188 191 193 192 190 177 191 204 212 204 209 196 180 151 112 81 188 231 188 173 134 55 184 214 318 324 298 228 227 227 232 222 217 210 215 215 221 227 224 225 224 229 228 227 226 226 227 225 223 222 225 233 238 237 236 238 241 243 243 241 242 247 245 216 217 215 214 225 238 251 252 251 258 264 263 260 259 263 265 266 267 268
193 192 191 191 194 191 200 188 183 188 198 210 205 200 192 191 181 161 157 251 184 209 176 163 157 137 125 89 316 354 329 314 255 243 230 219 208 219 216 226 233 222 221 225 233 230 229 225 228 226 227 223 222 221 224 226 225 227 231 235 238 240 242 240 241 247 218 211 215 219 222 227 232 252 254 256 255 253 254 259 259 261 263 264 265
193 194 197 192 190 196 197 189 189 186 192 202 198 202 185 201 192 205 148 102 20 21 142 143 136 145 276 217 242 107 327 300 335 288 236 227 207 224 216 229 238 234 213 231 234 229 230 223 229 227 227 227 225 222 226 224 228 229 229 231 232 235 237 239 240 238 240 241 226 216 217 216 230 244 246 250 258 254 250 252 258 261 262 262 261
195 198 197 193 191 191 193 194 185 189 191 197 192 198 194 194 190 174 171 158 156 109 3 180 197 204 137 85 349 16 232 258 1 277 20 199 222 223 219 228 234 230 223 241 246 243 234 229 228 230 227 225 224 225 226 227 228 227 230 230 229 230 233 235 236 238 238 239 240 233 210 211 223 239 243 246 250 254 253 251 252 255 256 258 258
190 199 205 191 189 191 191 184 189 189 190 192 195 188 190 187 195 181 170 180 150 140 200 276 230 222 189 152 184 237 262 242 46 297 321 235 291 235 219 229 232 232 235 248 246 245 236 244 233 235 230 225 224 227 225 225 225 226 225 228 227 228 229 232 234 235 236 236 235 236 228 218 229 230 234 241 245 245 250 252 252 253 253 252 257
169 172 200 210 189 187 185 188 186 188 186 181 181 192 197 199 168 171 181 160 132 170 194 231 8 360 194 215 156 89 136 80 265 317 318 327 352 263 247 228 221 225 232 237 241 246 241 234 244 242 240 232 229 229 227 229 226 229 229 230 227 228 228 230 232 232 233 234 234 233 232 231 230 231 230 231 233 234 230 240 247 247 242 249 252
151 147 142 186 214 184 182 180 182 186 181 187 191 191 168 155 162 166 158 162 167 185 217 195 169 250 127 72 75 80 74 309 177 232 274 302 302 308 269 276 242 231 231 239 239 235 244 232 235 240 238 239 229 230 232 231 229 230 234 234 230 228 229 229 231 231 231 232 232 232 232 231 231 233 237 232 231 227 222 224 229 232 234 250 255
180 160 157 154 174 202 176 171 174 182 187 186 191 173 172 160 152 157 171 175 179 191 174 199 194 210 134 265 64 338 107 182 197 167 220 219 288 304 300 323 298 260 241 248 258 249 244 244 236 237 238 238 231 228 231 231 228 227 235 235 235 234 232 232 233 233 232 231 231 231 231 231 231 233 233 234 239 228 218 219 221 222 224 230 237
196 188 160 158 159 170 202 177 177 178 182 186 177 169 164 173 183 182 175 173 195 185 200 197 194 200 192 168 164 119 72 276 193 170 237 213 260 294 311 315 315 288 288 265 253 256 251 250 252 245 242 242 238 233 228 231 225 228 236 235 238 239 237 236 236 237 236 235 233 232 232 231 232 233 233 233 236 243 223 218 220 220 221 224 226
192 202 198 172 153 162 197 199 175 177 177 177 180 178 181 179 186 182 175 181 191 203 215 199 183 192 199 185 204 203 219 219 218 197 201 237 270 268 268 224 247 306 270 276 289 265 251 248 251 249 242 243 242 241 237 236 237 238 239 236 235 236 239 240 239 238 237 237 236 235 233 233 233 233 234 233 234 238 239 225 222 223 224 224 224
203 204 200 191 145 146 182 198 185 179 185 182 178 180 181 185 182 183 190 196 193 192 206 196 189 202 212 204 213 208 204 214 224 191 192 225 215 272 279 305 276 227 287 301 263 267 274 255 247 251 250 248 244 233 247 245 246 243 241 239 237 236 236 239 240 239 238 237 237 236 234 233 234 234 234 235 234 236 241 235 224 223 224 225 223
214 211 200 169 160 128 150 213 197 193 182 176 184 181 183 188 190 192 192 189 194 196 195 204 191 191 215 218 213 188 212 221 190 190 200 195 196 260 263 180 265 292 285 314 311 292 256 268 273 258 249 248 248 237 236 245 249 249 242 248 238 239 240 241 241 239 237 237 237 236 235 234 233 234 235 235 234 235 239 242 231 225 224 224 223
228 212 190 173 166 162 144 258 234 189 184 185 184 190 189 193 195 194 196 203 192 195 203 205 195 211 208 217 214 213 218 176 189 181 192 165 197 217 266 276 204 280 293 317 303 338 326 312 276 259 262 249 255 252 244 253 257 256 248 249 245 237 239 242 244 244 242 239 237 236 236 236 236 234 234 234 234 233 236 240 240 232 231 228 226
210 207 177 186 175 167 180 213 237 200 189 188 191 193 197 199 200 199 198 195 197 194 203 196 202 208 206 214 224 217 220 188 179 207 188 206 212 204 189 279 290 242 286 279 290 274 273 298 281 278 266 289 312 311 283 277 275 271 265 249 254 246 238 240 242 244 245 245 242 238 235 235 234 233 233 233 233 234 235 237 238 238 238 234 233
199 215 192 183 176 173 179 196 232 217 193 191 191 191 193 196 203 195 201 191 192 194 203 195 206 206 210 209 197 231 212 192 194 199 202 207 216 209 190 237 259 289 299 297 302 297 243 278 308 271 310 338 356 319 322 284 281 291 280 266 268 270 252 246 244 244 244 245 246 244 241 235 233 234 234 233 234 235 236 236 237 236 237 238 238
196 207 194 181 177 171 188 204 216 202 193 196 194 194 189 194 195 192 200 195 190 199 193 190 212 201 200 197 212 230 219 192 201 205 204 213 225 227 207 231 231 250 288 294 294 297 304 184 321 318 21 19 3 0 347 324 313 307 293 282 283 280 282 270 256 247 244 246 247 248 247 245 241 238 237 238 238 237 237 235 235 235 238 240 240
192 194 190 182 179 180 194 208 203 181 183 184 189 189 182 191 193 196 201 181 189 191 193 199 208 192 201 193 208 236 225 201 220 214 218 219 226 223 210 232 233 241 250 276 286 175 289 249 205 291 351 356 345 339 333 318 314 314 304 299 284 282 286 284 275 263 250 246 246 246 248 248 248 248 248 246 245 244 241 237 236 238 241 242 242
191 197 197 189 186 180 188 187 176 180 184 184 174 169 173 179 186 193 180 172 180 194 198 193 199 169 193 220 227 247 242 233 230 227 223 222 228 208 228 228 227 231 249 261 281 235 157 300 303 305 315 318 329 323 315 311 310 318 317 312 300 305 302 293 286 277 266 255 249 247 248 250 251 253 255 255 254 254 254 253 247 243 242 243 242
183 186 213 205 186 174 173 171 171 171 182 192 184 169 165 175 175 172 170 172 185 201 193 178 144 164 188 219 234 242 249 247 250 241 237 236 234 234 227 223 229 226 240 258 266 275 271 290 302 308 309 314 323 318 318 308 309 315 319 315 321 327 323 313 307 292 281 270 257 249 248 249 252 254 255 258 260 262 263 260 256 253 249 244 242
175 179 179 202 224 174 160 164 169 170 172 171 166 158 163 156 160 166 162 175 193 198 152 158 162 176 202 219 238 245 243 253 259 260 254 245 233 234 233 231 240 229 228 246 262 280 280 210 269 306 316 318 329 331 328 329 328 329 327 321 334 340 334 330 325 316 300 287 275 264 256 252 251 253 255 258 259 260 262 264 265 265 260 255 250
164 174 180 187 198 180 160 155 160 164 159 149 143 150 163 168 164 161 160 167 170 137 133 158 178 194 200 229 251 265 252 249 260 260 251 240 232 240 236 237 247 249 220 238 259 271 290 293 297 244 314 348 329 330 328 331 333 330 332 334 338 346 338 333 332 325 323 317 309 292 274 261 254 252 255 256 261 264 266 269 270 270 269 267 265
178 175 180 190 195 173 156 153 153 156 148 147 148 154 166 169 160 152 155 157 163 151 161 172 185 183 194 226 251 261 257 245 249 255 252 252 246 248 259 250 255 258 246 232 251 271 285 294 324 316 328 325 313 317 329 318 311 312 324 340 342 335 340 341 335 327 326 325 322 312 296 283 271 265 261 259 262 264 267 267 267 267 267 266 265
172 181 184 203 202 177 153 152 156 158 157 154 159 165 171 166 157 149 150 159 164 158 146 113 111 143 176 220 252 255 238 236 246 252 256 251 251 255 263 266 249 259 254 242 238 252 280 296 309 311 309 308 309 320 322 308 325 328 335 329 334 338 343 352 344 336 329 321 318 320 323 317 306 294 284 278 274 271 267 265 265 264 264 264 263
168 186 182 182 187 165 166 163 161 161 157 154 152 167 172 168 158 150 152 149 137 141 142 141 134 129 159 233 248 227 192 225 241 243 247 250 249 239 245 250 250 251 254 246 246 242 260 284 295 265 278 297 300 312 324 346 338 338 359 2 343 345 352 358 350 335 313 310 311 317 328 332 326 318 308 297 290 283 278 275 273 269 265 263 261
84 88 97 119 148 162 169 164 151 143 147 154 163 168 166 156 146 145 144 133 130 144 147 138 128 136 166 205 234 227 222 229 244 250 246 247 244 234 232 238 242 250 257 267 264 269 264 276 288 301 310 319 328 345 344 350 347 353 357 356 345 2 354 346 349 334 323 311 325 335 342 340 336 328 317 307 298 290 285 284 283 282 279 274 268
49 67 94 100 77 101 111 111 110 110 105 110 122 134 136 132 132 134 131 125 129 128 120 124 114 114 115 100 69 51 73 29 268 246 225 225 232 245 246 256 261 249 270 287 293 286 287 293 297 308 310 274 343 341 350 360 351 34 360 346 345 346 342 340 326 325 305 310 325 319 321 314 309 308 312 307 303 293 287 285 287 287 287 283 277
38 60 49 63 63 57 55 70 73 78 96 97 99 100 109 117 111 105 99 100 103 101 89 75 72 72 79 77 75 73 68 33 7 6 2 289 238 235 275 244 246 251 262 291 295 304 310 309 304 303 297 339 329 335 327 4 4 3 8 346 326 330 330 327 309 312 320 345 351 340 335 322 312 300 287 280 279 280 278 279 276 276 277 278 279
29 48 72 63 66 75 66 72 69 69 71 78 89 103 106 100 101 105 107 107 105 92 81 74 69 72 56 54 54 49 80 82 69 65 65 53 186 179 242 228 222 228 245 269 288 300 292 297 305 310 339 341 342 354 352 13 7 344 331 338 311 324 325 318 324 278 12 9 344 326 339 355 330 326 325 323 331 303 285 274 280 278 274 274 275
25 27 58 69 57 79 81 74 77 70 63 54 77 91 105 117 111 106 95 84 76 76 82 89 83 69 60 57 70 79 76 73 69 65 57 54 54 84 201 211 208 212 223 226 248 284 299 299 307 335 328 345 7 3 349 350 345 338 342 350 340 328 325 312 304 44 30 15 344 330 333 358 342 322 328 333 340 335 332 329 330 315 302 294 290
31 32 59 81 81 75 86 84 78 72 58 44 75 80 81 89 97 92 91 78 74 74 77 85 96 94 78 54 33 57 59 52 48 47 55 52 50 45 46 44 33 2 225 209 255 316 323 326 2 22 17 5 18 355 6 345 348 346 341 340 335 339 351 349 332 335 81 17 341 326 321 5 351 336 331 337 342 342 340 336 330 326 318 311 303
59 99 86 83 87 82 82 83 81 81 80 49 67 69 70 72 78 83 75 78 78 77 87 96 95 93 84 65 42 25 41 50 45 25 32 34 48 65 66 65 63 55 47 44 40 53 37 42 40 32 15 26 354 6 357 354 345 337 342 346 355 348 342 338 325 312 326 45 336 323 311 325 344 345 327 327 335 340 333 322 322 324 322 318 312
71 67 58 68 68 75 87 90 76 63 71 38 55 66 71 73 76 80 73 77 79 73 72 73 76 77 71 59 50 34 20 35 39 24 25 25 32 51 76 80 71 64 56 49 44 48 44 64 57 52 39 8 14 8 357 343 322 335 343 350 349 345 339 327 321 315 311 353 331 333 324 320 342 342 328 324 331 334 328 327 323 321 319 319 324
77 76 75 78 76 76 72 76 72 53 54 38 60 66 70 70 70 74 74 76 77 79 80 86 90 87 73 68 57 40 26 32 31 23 21 34 45 56 67 64 60 51 52 51 49 46 51 66 71 68 24 31 16 334 334 331 345 354 341 342 346 342 337 322 309 306 298 331 349 333 327 339 342 335 332 331 333 326 322 320 315 312 313 323 334
58 66 70 77 71 70 67 69 69 56 42 41 62 67 71 75 75 79 75 78 78 76 76 75 78 76 70 64 59 53 37 32 30 10 37 43 76 79 76 67 61 55 49 41 37 38 46 50 62 62 26 9 357 339 331 338 321 307 298 300 315 313 305 302 289 295 305 6 355 354 344 334 332 330 331 331 331 324 321 312 303 305 317 335 335
49 70 60 68 74 70 65 68 71 59 43 37 56 63 67 69 74 74 72 72 75 75 70 78 88 94 91 76 65 60 48 42 18 9 21 82 93 96 87 78 71 60 54 43 45 40 50 55 54 46 30 8 345 17 14 359 348 341 317 255 353 356 345 344 343 330 311 346 19 17 346 326 335 330 323 324 327 327 319 311 308 325 336 326 318
48 49 53 66 70 74 65 56 70 57 43 29 45 58 63 68 74 71 74 75 73 71 62 51 59 69 108 82 60 49 51 51 15 14 22 90 91 91 95 87 79 69 51 30 43 50 65 68 68 68 52 46 43 42 32 24 24 4 1 34 20 356 2 359 346 343 321 345 35 17 336 321 343 330 325 327 327 312 311 329 349 337 320 312 306
69 68 85 72 65 75 78 69 72 78 54 32 46 58 67 66 82 91 90 92 80 73 70 50 47 36 43 54 49 39 25 21 357 22 23 76 90 93 98 95 76 63 42 16 39 49 62 69 58 57 47 42 35 37 36 25 26 23 33 37 3 359 13 13 348 338 307 336 47 9 351 343 330 334 327 322 315 319 328 353 339 328 327 323 317
72 81 86 89 80 70 78 82 83 82 71 50 48 59 66 69 80 85 91 100 92 71 77 66 45 49 30 35 38 30 19 358 13 35 38 57 83 74 85 86 77 62 27 356 38 41 35 38 35 37 37 29 29 31 33 27 30 33 31 29 15 21 16 4 351 338 329 349 29 6 352 340 343 346 347 331 334 321 355 347 334 333 329 333 341